Temperature
10 10 10 10 9 9 9 9 8 7 6 5 5 5 4 3 2 2 1 2 2 2 1 1 1 1 1 0 -0 -1 -1 -2 -2 -2 -3 -3 -3 -3
10 10 9 9 8 7 7 7 7 6 5 4 4 3 3 2 1 1 0 0 1 1 0 0 -0 -1 -1 -1 -2 -2 -2 -2 -3 -3 -3 -3 -3 -3
9 9 8 7 6 6 6 6 5 5 4 3 3 2 1 1 0 -0 -1 -1 -1 -0 -1 -1 -1 -2 -2 -2 -2 -3 -3 -3 -3 -3 -4 -4 -4 -3
9 8 7 6 5 5 4 4 4 4 3 3 2 1 0 -0 -1 -1 -1 -1 -1 -1 -1 -2 -2 -2 -3 -3 -3 -3 -4 -4 -4 -4 -4 -4 -4 -4
7 6 5 4 4 3 3 3 3 2 2 1 0 -1 -1 -1 -1 -2 -2 -2 -2 -2 -2 -2 -3 -3 -3 -3 -4 -4 -4 -4 -4 -4 -4 -4 -4 -4
4 3 3 2 2 2 2 2 2 1 0 -1 -1 -2 -2 -2 -3 -3 -4 -4 -4 -3 -3 -3 -3 -3 -3 -3 -4 -4 -4 -4 -4 -4 -4 -4 -4 -4
2 1 1 2 2 2 1 1 -0 -1 -1 -2 -3 -4 -4 -4 -5 -6 -6 -6 -5 -4 -4 -4 -4 -4 -3 -3 -3 -3 -4 -4 -4 -4 -4 -4 -5 -5
1 1 1 1 1 0 -0 -1 -1 -2 -2 -4 -5 -5 -6 -6 -7 -7 -8 -8 -7 -6 -6 -6 -5 -5 -4 -4 -3 -3 -4 -4 -4 -4 -5 -5 -5 -5
1 1 0 -0 -1 -1 -2 -2 -2 -3 -4 -5 -6 -7 -7 -7 -8 -8 -8 -8 -8 -7 -8 -7 -6 -5 -5 -4 -3 -3 -4 -4 -4 -5 -5 -5 -5 -6
-0 -1 -1 -2 -2 -2 -2 -3 -3 -4 -5 -6 -7 -7 -7 -7 -8 -8 -8 -8 -8 -7 -8 -8 -7 -6 -6 -4 -3 -3 -4 -4 -4 -5 -5 -5 -5 -6
-2 -2 -2 -2 -3 -3 -4 -4 -5 -6 -7 -7 -7 -7 -7 -7 -8 -8 -8 -8 -8 -7 -7 -8 -7 -7 -6 -4 -4 -4 -4 -4 -4 -4 -5 -5 -5 -6
-2 -3 -3 -3 -4 -5 -6 -7 -7 -7 -8 -7 -7 -7 -7 -7 -7 -8 -8 -8 -8 -8 -7 -8 -7 -8 -8 -5 -4 -4 -4 -4 -4 -4 -5 -5 -5 -6
-4 -4 -4 -5 -6 -7 -8 -8 -8 -8 -8 -7 -7 -7 -7 -7 -7 -7 -8 -8 -8 -8 -7 -8 -8 -8 -9 -8 -5 -4 -5 -5 -5 -5 -5 -5 -6 -6
-5 -6 -6 -7 -7 -8 -8 -8 -8 -8 -8 -8 -7 -7 -7 -7 -7 -7 -7 -7 -7 -7 -7 -7 -7 -7 -8 -9 -8 -6 -5 -5 -6 -5 -5 -6 -6 -6
-7 -7 -7 -7 -8 -8 -8 -8 -8 -8 -8 -8 -8 -7 -7 -7 -7 -7 -7 -7 -6 -6 -6 -6 -7 -7 -8 -9 -8 -7 -6 -5 -5 -6 -6 -7 -7 -7
-7 -8 -8 -8 -8 -8 -8 -8 -8 -8 -8 -8 -8 -8 -7 -7 -7 -7 -7 -7 -6 -5 -5 -6 -6 -7 -8 -8 -9 -8 -7 -7 -6 -7 -7 -8 -7 -8
-8 -8 -8 -9 -9 -9 -9 -9 -8 -8 -8 -8 -8 -8 -8 -7 -7 -7 -7 -7 -7 -6 -6 -6 -7 -8 -8 -8 -8 -7 -7 -7 -8 -8 -9 -9 -8 -8
-9 -9 -9 -9 -9 -9 -9 -9 -9 -9 -8 -8 -8 -8 -8 -8 -8 -7 -7 -7 -7 -6 -6 -6 -7 -8 -8 -8 -8 -7 -8 -8 -8 -9 -9 -9 -8 -8
-9 -9 -9 -9 -9 -9 -9 -8 -8 -8 -8 -8 -8 -8 -8 -8 -8 -8 -7 -7 -7 -7 -7 -7 -8 -9 -9 -9 -8 -8 -8 -8 -9 -9 -8 -8 -8 -8
-9 -9 -9 -9 -9 -9 -9 -9 -8 -8 -8 -8 -8 -8 -8 -8 -8 -8 -8 -8 -8 -7 -7 -7 -8 -8 -9 -9 -9 -8 -7 -8 -8 -8 -8 -8 -8 -7
-9 -9 -9 -9 -9 -9 -9 -8 -8 -8 -8 -8 -8 -8 -8 -8 -8 -8 -8 -8 -8 -8 -8 -7 -7 -8 -8 -9 -9 -8 -8 -8 -8 -8 -8 -8 -8 -7
-9 -9 -9 -9 -9 -9 -8 -8 -8 -8 -8 -8 -8 -8 -8 -8 -8 -8 -8 -8 -8 -8 -8 -7 -7 -8 -8 -8 -8 -8 -8 -7 -7 -7 -7 -7 -7 -7
-9 -9 -9 -9 -9 -9 -8 -8 -8 -8 -8 -8 -8 -8 -9 -9 -9 -9 -8 -8 -8 -8 -8 -8 -8 -8 -8 -8 -8 -8 -8 -8 -7 -7 -7 -6 -6 -6
Wind_Speed
10 9 7 5 4 3 4 4 5 5 4 4 3 5 6 7 6 8 9 10 13 17 19 20 21 21 22 23 23 24 24 24 24 25 25 25 26 26
7 9 7 6 6 5 5 5 4 4 3 2 2 3 6 7 8 10 11 12 16 17 19 20 21 23 23 23 23 24 24 24 25 26 26 26 27 27
10 11 10 9 7 6 6 6 5 4 3 2 2 3 4 6 7 10 11 12 13 16 18 21 23 23 23 23 23 23 24 24 25 26 26 27 27 28
12 12 12 9 9 7 6 6 5 3 3 3 3 4 6 7 7 9 11 12 14 17 20 22 23 23 23 23 22 23 23 24 25 26 27 28 29 29
11 12 11 11 9 7 6 5 4 3 2 3 4 4 5 6 8 9 10 11 13 16 18 20 21 21 21 22 23 24 25 26 27 27 28 28 29 29
10 10 10 9 9 8 6 5 4 4 4 4 5 6 6 7 7 8 9 9 10 12 16 18 19 20 22 24 25 26 26 26 26 27 27 28 28 29
11 10 9 10 9 6 4 4 5 4 4 5 6 6 7 6 7 7 9 10 11 10 10 10 12 13 17 20 23 24 24 25 26 26 27 28 29 29
11 9 9 8 7 6 4 5 7 6 6 6 7 8 8 8 7 8 9 10 9 6 9 11 11 14 15 17 21 24 26 27 28 28 28 29 29 30
9 8 6 5 5 2 1 3 6 7 8 8 9 9 9 8 9 10 11 12 13 12 13 15 14 15 14 19 23 26 27 28 28 28 28 28 28 29
8 6 5 3 2 2 3 4 5 6 6 7 8 9 9 9 10 11 12 13 15 13 13 14 14 14 13 16 22 25 26 27 27 28 28 27 28 28
6 4 2 1 2 4 4 5 6 6 7 9 12 13 15 16 14 10 10 11 12 12 10 9 11 12 13 14 17 20 22 24 25 27 27 28 28 27
3 2 1 2 3 4 4 5 7 7 7 8 9 10 11 13 13 11 9 9 9 7 7 6 9 9 8 9 10 12 15 20 23 25 26 26 26 18
1 1 1 3 5 5 5 5 7 9 9 9 8 9 8 7 7 8 8 8 10 9 8 6 8 8 8 8 10 12 12 13 14 16 20 22 23 18
1 2 2 4 6 6 6 8 10 10 7 7 8 8 7 7 7 7 10 12 14 15 16 13 9 10 10 13 12 11 12 13 13 14 12 17 19 21
3 4 4 5 6 5 6 8 7 5 6 7 7 7 7 8 8 8 9 11 14 18 20 19 14 13 12 13 13 14 14 14 13 12 11 11 12 12
3 2 3 4 5 6 6 5 5 5 6 7 8 8 8 8 8 8 8 9 9 11 10 14 15 14 14 15 15 17 15 11 11 13 13 14 14 13
4 4 4 4 4 4 4 4 5 5 6 6 7 8 8 8 8 7 7 7 8 9 11 9 10 12 15 15 16 17 16 15 15 14 14 15 15 14
5 5 4 4 4 4 5 5 5 5 5 6 7 8 8 8 9 8 8 9 10 12 12 12 11 12 12 13 18 18 16 15 14 14 14 16 17 14
4 4 4 4 5 5 5 5 6 6 6 6 7 8 8 8 9 9 9 10 11 12 12 12 12 12 14 16 10 12 14 15 16 16 15 15 17 16
4 4 5 5 5 5 6 6 6 7 6 7 7 8 8 8 9 10 10 11 12 13 14 13 12 12 14 17 17 18 16 17 16 17 16 16 17 20
5 5 5 5 6 6 6 7 7 8 8 8 8 9 8 9 10 10 11 15 15 13 14 15 14 17 15 14 15 16 15 14 17 17 17 17 18 17
5 6 6 6 7 7 7 7 8 8 9 9 9 9 9 9 11 13 12 13 13 14 16 16 16 14 14 16 18 20 21 17 15 20 24 23 15 12
6 7 7 7 7 7 7 8 10 9 9 9 10 10 10 10 11 11 13 14 14 16 17 17 16 14 15 16 18 18 21 21 17 16 15 16 23 29
Wind_Direction
203 190 174 154 140 132 129 145 157 170 178 164 171 183 193 206 213 255 274 278 290 295 296 296 294 293 292 290 289 288 287 286 285 284 282 280 279 278
172 165 152 143 129 116 109 94 93 124 144 152 182 176 194 216 239 266 277 282 283 286 289 290 290 289 287 286 285 285 285 284 283 282 281 280 279 278
164 159 150 141 131 120 110 104 98 105 148 153 178 199 220 240 256 266 274 279 281 282 285 288 288 286 284 284 283 283 282 282 281 281 281 281 281 280
160 151 144 136 125 120 115 113 118 122 149 190 208 212 234 253 268 275 279 281 282 285 287 287 286 285 284 282 281 281 281 282 282 282 281 281 280 280
146 142 137 132 126 122 121 124 127 136 159 211 237 234 245 254 270 274 277 279 282 284 285 285 284 284 282 281 282 282 283 282 281 280 279 278 277 277
118 119 120 123 126 129 129 137 143 161 189 223 245 251 253 261 267 277 284 287 288 288 285 283 282 282 281 280 280 280 280 280 279 278 277 276 275 274
98 97 100 110 125 131 139 155 170 192 213 233 248 257 261 265 270 282 288 294 293 290 286 282 283 282 282 280 277 276 276 277 277 277 276 275 274 273
102 97 98 99 113 127 159 190 202 215 229 241 255 261 270 277 283 286 292 294 297 292 291 290 289 285 283 280 278 279 279 279 279 278 278 277 276 274
101 104 104 107 104 112 215 253 245 249 251 258 265 271 280 285 291 289 285 284 283 286 292 288 288 284 282 279 279 279 280 281 281 281 280 278 276 274
97 103 111 120 144 201 223 238 247 250 256 264 271 278 280 283 278 278 282 283 282 279 275 280 284 283 285 282 280 279 280 281 281 281 281 280 279 278
105 116 130 166 231 254 251 254 263 265 260 267 277 280 281 281 282 284 281 279 283 285 284 278 282 290 289 284 280 279 278 279 280 281 282 282 281 280
125 140 202 295 289 285 279 273 277 287 292 286 280 277 277 277 274 265 263 266 273 282 277 270 285 302 296 279 280 285 285 282 281 280 279 279 280 279
96 5 344 316 306 308 303 287 291 297 295 293 290 287 282 275 268 261 256 251 256 259 267 280 279 280 272 285 291 288 285 285 286 284 283 281 278 274
350 331 323 313 313 319 308 303 299 296 288 286 285 285 287 287 285 279 270 260 254 257 266 270 267 270 275 281 284 287 289 290 288 285 283 281 279 275
333 328 326 331 320 306 303 302 297 283 279 280 282 286 289 289 288 283 275 266 262 260 260 256 253 259 261 267 274 284 292 293 286 279 278 278 278 277
313 312 309 311 298 294 295 286 278 279 284 283 286 290 292 286 280 281 287 293 290 282 258 245 246 250 260 265 271 277 280 278 280 282 282 281 276 271
311 292 295 299 296 293 290 287 280 272 272 277 283 286 286 286 285 286 283 284 279 287 294 285 263 253 254 261 269 269 273 274 274 278 281 281 277 271
299 288 294 296 299 302 300 295 289 279 279 280 279 279 282 285 287 286 280 278 280 284 288 293 294 291 283 265 242 257 267 273 278 278 278 281 282 277
284 285 288 290 291 290 289 288 287 285 283 277 275 277 278 279 281 283 284 282 282 284 286 288 287 288 292 297 279 237 261 279 284 283 280 277 280 282
279 280 282 285 286 287 287 287 288 289 283 278 277 275 273 274 277 280 281 282 285 288 289 286 280 278 280 289 292 289 269 269 278 282 285 284 281 280
283 280 281 282 282 282 282 282 282 283 282 281 278 275 273 272 274 277 280 283 284 284 285 285 283 282 281 283 282 284 283 264 259 271 282 285 286 287
283 282 282 281 281 280 280 280 281 281 281 278 277 277 275 272 274 277 279 281 282 282 284 285 286 287 283 282 285 290 295 293 278 263 261 261 270 277
283 283 282 282 278 276 276 276 277 278 279 278 278 277 277 275 275 276 278 280 281 284 287 289 291 288 286 285 288 290 293 296 298 296 284 261 252 256
Height
1475 1478 1480 1482 1485 1487 1490 1492 1494 1495 1496 1497 1498 1499 1499 1499 1499 1499 1497 1495 1494 1493 1491 1488 1485 1483 1480 1478 1476 1474 1473 1471 1470 1469 1469 1468 1468 1467
1467 1469 1472 1474 1477 1479 1482 1484 1487 1489 1490 1491 1492 1493 1493 1493 1492 1492 1490 1487 1485 1484 1482 1479 1477 1475 1472 1470 1468 1466 1464 1463 1462 1461 1460 1460 1460 1459
1460 1462 1464 1467 1469 1472 1475 1477 1479 1482 1484 1485 1486 1486 1487 1486 1485 1484 1483 1480 1478 1476 1473 1471 1469 1467 1464 1462 1460 1458 1456 1455 1454 1453 1452 1451 1451 1450
1453 1455 1457 1461 1464 1467 1470 1473 1474 1476 1478 1479 1479 1480 1480 1480 1479 1477 1475 1473 1471 1468 1466 1464 1461 1459 1457 1454 1452 1450 1448 1447 1445 1444 1443 1442 1441 1440
1447 1450 1453 1457 1460 1463 1466 1469 1470 1471 1472 1473 1473 1474 1474 1473 1471 1470 1468 1466 1464 1461 1459 1457 1454 1452 1450 1447 1445 1443 1441 1439 1437 1435 1434 1432 1431 1430
1444 1448 1452 1455 1459 1461 1463 1465 1466 1467 1467 1468 1468 1468 1467 1466 1464 1463 1461 1459 1457 1455 1452 1450 1448 1445 1443 1441 1438 1436 1433 1431 1428 1426 1425 1423 1421 1420
1443 1448 1451 1454 1457 1459 1460 1461 1462 1462 1463 1463 1463 1462 1461 1460 1459 1457 1455 1453 1450 1448 1445 1443 1441 1438 1436 1433 1431 1428 1425 1423 1420 1417 1415 1413 1412 1410
1445 1448 1451 1453 1455 1456 1457 1457 1458 1458 1458 1458 1458 1457 1456 1455 1454 1452 1450 1447 1444 1443 1440 1437 1435 1431 1429 1426 1423 1420 1417 1414 1411 1408 1405 1403 1401 1400
1446 1448 1450 1451 1452 1452 1453 1453 1453 1453 1453 1453 1453 1452 1451 1450 1448 1446 1445 1443 1440 1438 1436 1430 1429 1424 1422 1418 1415 1412 1408 1405 1402 1399 1396 1393 1391 1389
1446 1447 1448 1449 1449 1449 1449 1449 1449 1449 1448 1447 1447 1446 1445 1444 1443 1442 1440 1437 1435 1433 1430 1425 1421 1418 1414 1410 1407 1404 1400 1397 1393 1389 1386 1384 1381 1379
1445 1446 1447 1447 1446 1446 1446 1445 1445 1445 1443 1442 1441 1440 1439 1439 1438 1437 1435 1432 1429 1427 1425 1421 1415 1411 1406 1402 1399 1395 1391 1388 1384 1380 1377 1374 1371 1368
1445 1445 1445 1444 1444 1443 1443 1442 1442 1441 1440 1438 1437 1435 1434 1433 1432 1431 1429 1427 1424 1420 1418 1415 1410 1405 1397 1392 1390 1387 1382 1378 1375 1371 1367 1364 1361 1358
1444 1443 1443 1442 1441 1440 1440 1439 1438 1437 1435 1434 1433 1432 1430 1429 1428 1426 1424 1422 1419 1415 1413 1410 1404 1400 1395 1385 1380 1378 1374 1369 1365 1361 1358 1354 1352 1349
1442 1441 1440 1439 1438 1437 1436 1435 1434 1433 1432 1430 1429 1428 1427 1425 1423 1421 1419 1416 1413 1410 1408 1404 1398 1394 1388 1381 1373 1369 1366 1362 1357 1352 1349 1345 1342 1339
1441 1439 1438 1436 1435 1434 1433 1431 1430 1429 1428 1427 1426 1424 1423 1421 1418 1416 1414 1411 1408 1405 1402 1398 1392 1387 1382 1375 1367 1362 1357 1352 1349 1344 1340 1336 1332 1329
1438 1437 1435 1434 1432 1431 1429 1428 1427 1426 1425 1424 1422 1421 1419 1416 1414 1411 1408 1405 1401 1398 1395 1390 1385 1380 1374 1368 1362 1355 1350 1345 1340 1336 1332 1327 1323 1320
1436 1434 1433 1431 1430 1429 1427 1426 1425 1424 1422 1421 1419 1417 1414 1411 1409 1406 1403 1399 1395 1390 1386 1384 1378 1372 1366 1361 1354 1348 1342 1337 1333 1329 1324 1318 1314 1311
1434 1433 1431 1430 1428 1427 1425 1424 1423 1421 1419 1417 1415 1412 1409 1406 1403 1401 1397 1393 1388 1384 1379 1375 1370 1364 1359 1352 1348 1341 1335 1330 1325 1322 1317 1311 1304 1301
1432 1430 1429 1427 1425 1424 1422 1421 1419 1418 1416 1413 1410 1408 1404 1401 1397 1394 1391 1387 1382 1377 1372 1368 1364 1359 1352 1344 1339 1336 1330 1323 1318 1313 1309 1304 1296 1290
1429 1427 1426 1424 1422 1421 1419 1417 1415 1414 1411 1409 1406 1402 1399 1395 1392 1388 1384 1380 1375 1370 1365 1361 1357 1353 1347 1339 1330 1323 1322 1317 1310 1304 1299 1294 1287 1282
1426 1424 1422 1421 1419 1417 1415 1413 1411 1409 1406 1403 1400 1397 1393 1389 1385 1382 1378 1373 1369 1363 1357 1352 1349 1345 1339 1332 1323 1313 1310 1309 1304 1298 1291 1285 1278 1273
1422 1421 1419 1417 1415 1413 1411 1408 1406 1404 1401 1398 1394 1391 1387 1383 1379 1375 1371 1366 1361 1356 1350 1344 1339 1335 1330 1325 1316 1307 1299 1295 1292 1288 1282 1278 1273 1265
1418 1416 1415 1413 1411 1408 1406 1403 1401 1398 1395 1392 1388 1384 1380 1376 1372 1368 1363 1359 1353 1348 1342 1336 1331 1326 1321 1316 1309 1300 1292 1285 1280 1274 1269 1267 1263 1257